Weather History for Grove, OK

Change the Weather History Date:

Sunday, January 6, 2013

  Actual Average (KSLG) Record (KSLG)
Temperature  
Mean Temperature 34 °F -  
Max Temperature 44 °F 43 °F 71 °F (2008)
Min Temperature 23 °F 27 °F -4 °F (2014)
Degree Days  
Heating Degree Days 31    
Moisture  
Dew Point 26 °F    
Average Humidity 74    
Maximum Humidity 100    
Minimum Humidity 43    
Precipitation  
Precipitation 0.00 in - - ()
Sea Level Pressure  
Sea Level Pressure 30.35 in    
Wind  
Wind Speed 3 mph (NW)    
Max Wind Speed 9 mph    
Max Gust Speed -    
Visibility 10 miles    
Events      
Averages and records for this station are not official NWS values.
T = Trace of Precipitation, MM = Missing Value Source: NWS Daily Summary

Daily Weather History Graph

Daily Weather History Graph

Search for Another Location

Airport:

Trip Planner

Search our weather history database for the weather conditions in past years. The results will help you decide how hot, cold, wet, or windy it might be!

Date:

Astronomy

Jan. 06, 2013 Rise Set
Actual Time 7:31 AM CST 5:18 PM CST
Civil Twilight 7:03 AM CST 5:47 PM CST
Nautical Twilight 6:30 AM CST 6:19 PM CST
Astronomical Twilight 5:59 AM CST 6:50 PM CST
Moon 1:50 AM CST (1/6) 12:43 PM CST (1/6)
Length of Visible Light 10h 44m
Length of Day
9h 46m
Waning Crescent, 33% of the Moon is Illuminated
Jan 6
Waning Crescent
Jan 11
New
Jan 18
First Quarter
Jan 26
Full
Feb 3
Last Quarter

Hourly Weather History & Observations

Time (CST) Temp. Windchill Dew Point Humidity Pressure Visibility Wind Dir Wind Speed Gust Speed Precip Events Conditions
12:15 AM 33.8 °F 29.6 °F 33.8 °F 100% 30.26 in 10.0 mi SW 4.6 mph - N/A   Clear
12:35 AM 33.8 °F 30.8 °F 33.8 °F 100% 30.26 in 10.0 mi West 3.5 mph - N/A   Clear
12:55 AM 33.8 °F 28.6 °F 33.8 °F 100% 30.26 in 10.0 mi WSW 5.8 mph - N/A   Clear
1:15 AM 33.8 °F - 33.8 °F 100% 30.27 in 10.0 mi Calm Calm - N/A   Clear
1:35 AM 33.8 °F - 33.8 °F 100% 30.27 in 10.0 mi Calm Calm - N/A   Clear
1:55 AM 33.8 °F 30.8 °F 32.0 °F 93% 30.27 in 10.0 mi West 3.5 mph - N/A   Clear
2:15 AM 32.0 °F 28.7 °F 30.2 °F 93% 30.27 in 10.0 mi West 3.5 mph - N/A   Clear
2:35 AM 32.0 °F 28.7 °F 30.2 °F 93% 30.28 in 10.0 mi WSW 3.5 mph - N/A   Clear
2:55 AM 32.0 °F - 30.2 °F 93% 30.29 in 10.0 mi Calm Calm - N/A   Clear
3:15 AM 32.0 °F 28.7 °F 30.2 °F 93% 30.29 in 10.0 mi WSW 3.5 mph - N/A   Clear
3:35 AM 32.0 °F 28.7 °F 30.2 °F 93% 30.30 in 10.0 mi West 3.5 mph - N/A   Clear
3:55 AM 32.0 °F - 28.4 °F 87% 30.30 in 10.0 mi Calm Calm - N/A   Clear
4:15 AM 32.0 °F - 28.4 °F 87% 30.29 in 10.0 mi Calm Calm - N/A   Clear
4:35 AM 32.0 °F 28.7 °F 28.4 °F 87% 30.30 in 10.0 mi West 3.5 mph - N/A   Clear
4:55 AM 32.0 °F 28.7 °F 26.6 °F 80% 30.31 in 10.0 mi West 3.5 mph - N/A   Clear
5:15 AM 30.2 °F - 26.6 °F 86% 30.31 in 10.0 mi Calm Calm - N/A   Clear
5:35 AM 32.0 °F - 26.6 °F 80% 30.31 in 10.0 mi Calm Calm - N/A   Clear
5:55 AM 32.0 °F - 26.6 °F 80% 30.32 in 10.0 mi Calm Calm - N/A   Clear
6:15 AM 30.2 °F - 26.6 °F 86% 30.33 in 10.0 mi Calm Calm - N/A   Clear
6:35 AM 30.2 °F - 24.8 °F 80% 30.34 in 10.0 mi Calm Calm - N/A   Clear
6:55 AM 32.0 °F - 26.6 °F 80% 30.35 in 10.0 mi Calm Calm - N/A   Clear
7:15 AM 30.2 °F 25.4 °F 26.6 °F 86% 30.36 in 10.0 mi West 4.6 mph - N/A   Clear
7:35 AM 32.0 °F 27.5 °F 26.6 °F 80% 30.37 in 10.0 mi WNW 4.6 mph - N/A   Clear
7:55 AM 32.0 °F 27.5 °F 26.6 °F 80% 30.37 in 10.0 mi WNW 4.6 mph - N/A   Clear
8:15 AM 32.0 °F - 26.6 °F 80% 30.37 in 10.0 mi Calm Calm - N/A   Clear
8:35 AM 32.0 °F - 26.6 °F 80% 30.38 in 10.0 mi Calm Calm - N/A   Clear
8:55 AM 32.0 °F - 26.6 °F 80% 30.38 in 10.0 mi Calm Calm - N/A   Clear
9:15 AM 32.0 °F 26.4 °F 26.6 °F 80% 30.39 in 10.0 mi NNW 5.8 mph - N/A   Clear
9:35 AM 33.8 °F 29.6 °F 28.4 °F 81% 30.40 in 10.0 mi NW 4.6 mph - N/A   Clear
9:55 AM 33.8 °F 28.6 °F 28.4 °F 81% 30.40 in 10.0 mi North 5.8 mph - N/A   Clear
10:15 AM 33.8 °F 27.7 °F 28.4 °F 81% 30.41 in 10.0 mi NW 6.9 mph - N/A   Clear
10:35 AM 35.6 °F 29.9 °F 26.6 °F 70% 30.41 in 10.0 mi North 6.9 mph - N/A   Clear
10:55 AM 37.4 °F 32.8 °F 26.6 °F 65% 30.41 in 10.0 mi NW 5.8 mph - N/A   Clear
11:15 AM 37.4 °F 32.8 °F 26.6 °F 65% 30.41 in 10.0 mi NW 5.8 mph - N/A   Clear
11:35 AM 37.4 °F 33.8 °F 26.6 °F 65% 30.40 in 10.0 mi NNW 4.6 mph - N/A   Clear
11:55 AM 39.2 °F 34.2 °F 26.6 °F 61% 30.38 in 10.0 mi NW 6.9 mph - N/A   Clear
12:15 PM 41.0 °F 38.0 °F 24.8 °F 53% 30.38 in 10.0 mi WNW 4.6 mph - N/A   Clear
12:35 PM 41.0 °F 37.1 °F 24.8 °F 53% 30.38 in 10.0 mi NW 5.8 mph - N/A   Clear
12:55 PM 42.8 °F 38.6 °F 24.8 °F 49% 30.37 in 10.0 mi NW 6.9 mph - N/A   Clear
1:15 PM 42.8 °F 37.5 °F 24.8 °F 49% 30.37 in 10.0 mi NNW 9.2 mph - N/A   Clear
1:35 PM 42.8 °F 38.0 °F 23.0 °F 46% 30.36 in 10.0 mi NNW 8.1 mph - N/A   Clear
1:55 PM 44.6 °F 40.7 °F 23.0 °F 43% 30.36 in 10.0 mi NNW 6.9 mph - N/A   Clear
2:15 PM 44.6 °F 40.7 °F 24.8 °F 46% 30.35 in 10.0 mi NW 6.9 mph - N/A   Clear
2:35 PM 44.6 °F 41.4 °F 23.0 °F 43% 30.36 in 10.0 mi North 5.8 mph - N/A   Clear
2:55 PM 44.6 °F 43.1 °F 23.0 °F 43% 30.36 in 10.0 mi North 3.5 mph - N/A   Clear
3:15 PM 44.6 °F 42.2 °F 24.8 °F 46% 30.36 in 10.0 mi NNW 4.6 mph - N/A   Clear
3:35 PM 44.6 °F 43.1 °F 23.0 °F 43% 30.36 in 10.0 mi North 3.5 mph - N/A   Clear
3:55 PM 44.6 °F - 23.0 °F 43% 30.36 in 10.0 mi Calm Calm - N/A   Clear
4:15 PM 44.6 °F 43.1 °F 23.0 °F 43% 30.36 in 10.0 mi NW 3.5 mph - N/A   Clear
4:35 PM 42.8 °F - 23.0 °F 46% 30.36 in 10.0 mi Calm Calm - N/A   Clear
4:55 PM 42.8 °F - 23.0 °F 46% 30.36 in 10.0 mi Calm Calm - N/A   Clear
5:15 PM 39.2 °F - 23.0 °F 52% 30.36 in 10.0 mi Calm Calm - N/A   Clear
5:35 PM 37.4 °F - 24.8 °F 60% 30.36 in 10.0 mi Calm Calm - N/A   Clear
5:55 PM 35.6 °F - 24.8 °F 65% 30.36 in 10.0 mi Calm Calm - N/A   Clear
6:15 PM 33.8 °F - 23.0 °F 65% 30.36 in 10.0 mi Calm Calm - N/A   Clear
6:35 PM 32.0 °F - 23.0 °F 69% 30.36 in 10.0 mi Calm Calm - N/A   Clear
6:55 PM 33.8 °F - 23.0 °F 65% 30.36 in 10.0 mi Calm Calm - N/A   Clear
7:15 PM 33.8 °F - 24.8 °F 70% 30.37 in 10.0 mi Calm Calm - N/A   Clear
7:35 PM 32.0 °F - 24.8 °F 75% 30.37 in 10.0 mi Calm Calm - N/A   Clear
7:55 PM 30.2 °F - 26.6 °F 86% 30.37 in 10.0 mi Calm Calm - N/A   Clear
8:15 PM 30.2 °F - 26.6 °F 86% 30.37 in 5.0 mi Calm Calm - N/A   Clear
8:35 PM 28.4 °F - 24.8 °F 86% 30.37 in 7.0 mi Calm Calm - N/A   Clear
9:15 PM 26.6 °F - 23.0 °F 86% 30.37 in 10.0 mi Calm Calm - N/A   Clear
9:55 PM 26.6 °F - 23.0 °F 86% 30.37 in 7.0 mi Calm Calm - N/A   Clear
10:35 PM 26.6 °F - 23.0 °F 86% 30.37 in 10.0 mi Calm Calm - N/A   Clear
10:55 PM 26.6 °F - 23.0 °F 86% 30.37 in 10.0 mi Calm Calm - N/A   Clear
11:35 PM 24.8 °F - 24.8 °F 100% 30.37 in 5.0 mi Calm Calm - N/A   Clear
11:55 PM 23.0 °F - 23.0 °F 100% 30.37 in 10.0 mi Calm Calm - N/A   Clear